• In Italy
  • List of Countries
  • For 7 days
  • Water Temperature
  • Satellite Maps
  • Weather Map
  • Weather Widgets
  • user-avatar
    Login

    Hourly Weather Tatabanya

    Today, 18 September, Tuesday

    Time Temperature Precipitation Wind Pressure Humidity
    00:00 +18°C° 0 mm 2 mps 746 mmHg 59%
    01:00 +18°C° 0 mm 2 mps 745 mmHg 59%
    02:00 +17°C° 0 mm 2 mps 745 mmHg 60%
    03:00 +17°C° 0 mm 2 mps 745 mmHg 62%
    04:00 +17°C° 0 mm 2 mps 745 mmHg 64%
    05:00 +17°C° 0 mm 2 mps 745 mmHg 63%
    06:00 +18°C° 0 mm 2 mps 745 mmHg 61%
    07:00 +18°C° 0 mm 3 mps 746 mmHg 56%
    08:00 +20°C° 0 mm 3 mps 746 mmHg 50%
    09:00 +22°C° 0 mm 3 mps 746 mmHg 45%
    10:00 +25°C° 0 mm 3 mps 746 mmHg 39%
    11:00 +26°C° 0 mm 3 mps 746 mmHg 37%
    12:00 +27°C° 0 mm 3 mps 745 mmHg 34%
    13:00 +28°C° 0 mm 3 mps 745 mmHg 32%
    14:00 +28°C° 0 mm 3 mps 745 mmHg 32%
    15:00 +28°C° 0 mm 3 mps 744 mmHg 32%
    16:00 +28°C° 0 mm 3 mps 744 mmHg 31%
    17:00 +26°C° 0 mm 2 mps 744 mmHg 35%
    18:00 +24°C° 0 mm 2 mps 744 mmHg 38%
    19:00 +21°C° 0 mm 2 mps 744 mmHg 42%
    20:00 +20°C° 0 mm 2 mps 744 mmHg 43%
    21:00 +20°C° 0 mm 2 mps 744 mmHg 44%
    22:00 +19°C° 0 mm 2 mps 744 mmHg 46%
    23:00 +19°C° 0 mm 2 mps 744 mmHg 47%

    Tomorrow, 19 September, Wednesday

    Time Temperature Precipitation Wind Pressure Humidity
    00:00 +18°C° 0 mm 2 mps 744 mmHg 49%
    01:00 +18°C° 0 mm 2 mps 744 mmHg 51%
    02:00 +17°C° 0 mm 2 mps 744 mmHg 53%
    03:00 +17°C° 0 mm 2 mps 744 mmHg 55%
    04:00 +16°C° 0 mm 2 mps 744 mmHg 57%
    05:00 +17°C° 0 mm 2 mps 745 mmHg 57%
    06:00 +17°C° 0 mm 2 mps 745 mmHg 58%
    07:00 +18°C° 0 mm 2 mps 745 mmHg 58%
    08:00 +20°C° 0 mm 2 mps 745 mmHg 53%
    09:00 +23°C° 0 mm 2 mps 745 mmHg 47%
    10:00 +26°C° 0 mm 2 mps 746 mmHg 42%
    11:00 +27°C° 0 mm 2 mps 745 mmHg 39%
    12:00 +28°C° 0 mm 2 mps 745 mmHg 35%
    13:00 +29°C° 0 mm 2 mps 745 mmHg 32%
    14:00 +29°C° 0 mm 2 mps 745 mmHg 31%
    15:00 +29°C° 0 mm 1 mps 744 mmHg 31%
    16:00 +29°C° 0 mm 1 mps 744 mmHg 30%
    17:00 +27°C° 0 mm 1 mps 744 mmHg 34%
    18:00 +25°C° 0 mm 1 mps 744 mmHg 38%
    19:00 +23°C° 0 mm 1 mps 744 mmHg 42%
    20:00 +22°C° 0 mm 1 mps 745 mmHg 44%
    21:00 +22°C° 0 mm 1 mps 745 mmHg 46%
    22:00 +21°C° 0 mm 1 mps 745 mmHg 47%
    23:00 +21°C° 0 mm 1 mps 745 mmHg 49%

    Day after tomorrow, 20 September, Thursday

    Time Temperature Precipitation Wind Pressure Humidity
    00:00 +19°C° 0 mm 2 mps 745 mmHg 50%
    01:00 +19°C° 0 mm 2 mps 745 mmHg 52%
    02:00 +18°C° 0 mm 2 mps 744 mmHg 53%
    03:00 +18°C° 0 mm 2 mps 744 mmHg 54%
    04:00 +18°C° 0 mm 2 mps 744 mmHg 56%
    05:00 +19°C° 0 mm 1 mps 745 mmHg 56%
    06:00 +20°C° 0 mm 1 mps 745 mmHg 56%
    07:00 +20°C° 0 mm 1 mps 745 mmHg 56%
    08:00 +21°C° 0 mm 2 mps 745 mmHg 50%
    09:00 +24°C° 0 mm 2 mps 745 mmHg 44%
    10:00 +26°C° 0 mm 2 mps 745 mmHg 38%
    11:00 +28°C° 0 mm 2 mps 745 mmHg 35%
    12:00 +29°C° 0 mm 2 mps 745 mmHg 32%
    13:00 +30°C° 0 mm 2 mps 744 mmHg 29%
    14:00 +30°C° 0 mm 1 mps 744 mmHg 29%
    15:00 +30°C° 0 mm 1 mps 744 mmHg 29%
    16:00 +30°C° 0 mm 1 mps 743 mmHg 29%
    17:00 +28°C° 0 mm 1 mps 743 mmHg 32%
    18:00 +26°C° 0 mm 1 mps 743 mmHg 35%
    19:00 +24°C° 0 mm 1 mps 743 mmHg 39%
    20:00 +23°C° 0 mm 1 mps 743 mmHg 39%
    21:00 +22°C° 0 mm 1 mps 743 mmHg 40%
    22:00 +21°C° 0 mm 2 mps 743 mmHg 41%
    23:00 +20°C° 0 mm 2 mps 743 mmHg 42%

    21 September, Friday

    Time Temperature Precipitation Wind Pressure Humidity
    00:00 +20°C° 0 mm 2 mps 743 mmHg 44%
    01:00 +19°C° 0 mm 2 mps 743 mmHg 45%
    02:00 +19°C° 0 mm 2 mps 742 mmHg 46%
    03:00 +18°C° 0 mm 2 mps 742 mmHg 47%
    04:00 +18°C° 0 mm 2 mps 742 mmHg 48%
    05:00 +18°C° 0 mm 2 mps 742 mmHg 49%
    06:00 +19°C° 0 mm 2 mps 742 mmHg 49%
    07:00 +19°C° 0 mm 2 mps 742 mmHg 49%
    08:00 +23°C° 0 mm 2 mps 742 mmHg 44%
    09:00 +25°C° 0 mm 3 mps 742 mmHg 39%
    10:00 +27°C° 0 mm 3 mps 742 mmHg 34%
    11:00 +28°C° 0 mm 4 mps 741 mmHg 31%
    12:00 +29°C° 0 mm 4 mps 741 mmHg 28%
    13:00 +30°C° 0 mm 4 mps 740 mmHg 25%
    14:00 +30°C° 0 mm 4 mps 740 mmHg 25%
    15:00 +30°C° 0 mm 4 mps 739 mmHg 25%
    16:00 +30°C° 0 mm 3 mps 739 mmHg 25%
    17:00 +28°C° 0 mm 3 mps 739 mmHg 27%
    18:00 +26°C° 0 mm 3 mps 738 mmHg 30%
    19:00 +23°C° 0 mm 2 mps 738 mmHg 32%
    20:00 +22°C° 0 mm 3 mps 738 mmHg 33%
    21:00 +21°C° 0 mm 3 mps 738 mmHg 34%
    22:00 +21°C° 0 mm 3 mps 738 mmHg 35%
    23:00 +20°C° 0 mm 3 mps 738 mmHg 38%

    22 September, Saturday

    Time Temperature Precipitation Wind Pressure Humidity
    00:00 +20°C° 0 mm 3 mps 738 mmHg 40%
    01:00 +20°C° 0 mm 2 mps 738 mmHg 43%
    02:00 +19°C° 0 mm 5 mps 738 mmHg 50%
    03:00 +18°C° 0 mm 8 mps 739 mmHg 57%
    04:00 +17°C° 0 mm 11 mps 740 mmHg 64%
    05:00 +16°C° 0 mm 11 mps 741 mmHg 63%
    06:00 +14°C° 0 mm 11 mps 742 mmHg 61%
    07:00 +13°C° 0 mm 10 mps 743 mmHg 60%
    08:00 +12°C° 0.3 mm 9 mps 744 mmHg 62%
    09:00 +11°C° 0.3 mm 8 mps 744 mmHg 64%
    10:00 +11°C° 0.3 mm 7 mps 745 mmHg 66%
    11:00 +11°C° 0.3 mm 6 mps 745 mmHg 63%
    12:00 +11°C° 0.3 mm 6 mps 746 mmHg 59%
    13:00 +13°C° 0.3 mm 5 mps 746 mmHg 55%
    14:00 +14°C° 0 mm 5 mps 746 mmHg 49%
    15:00 +15°C° 0 mm 5 mps 746 mmHg 44%
    16:00 +16°C° 0 mm 5 mps 746 mmHg 39%
    17:00 +15°C° 0 mm 4 mps 746 mmHg 45%
    18:00 +13°C° 0 mm 3 mps 747 mmHg 50%
    19:00 +12°C° 0 mm 3 mps 747 mmHg 56%
    20:00 +12°C° 0 mm 2 mps 747 mmHg 59%
    21:00 +12°C° 0 mm 2 mps 747 mmHg 63%
    22:00 +10°C° 0 mm 2 mps 748 mmHg 66%
    23:00 +9°C° 0 mm 2 mps 748 mmHg 68%

    23 September, Sunday

    Time Temperature Precipitation Wind Pressure Humidity
    00:00 +9°C° 0 mm 2 mps 747 mmHg 69%
    01:00 +9°C° 0 mm 2 mps 747 mmHg 71%
    02:00 +8°C° 0 mm 2 mps 747 mmHg 72%
    03:00 +8°C° 0 mm 2 mps 747 mmHg 73%
    04:00 +9°C° 0 mm 1 mps 747 mmHg 75%
    05:00 +9°C° 0 mm 1 mps 748 mmHg 72%
    06:00 +10°C° 0 mm 1 mps 748 mmHg 70%
    07:00 +11°C° 0 mm 1 mps 748 mmHg 67%
    08:00 +13°C° 0 mm 1 mps 748 mmHg 60%
    09:00 +15°C° 0 mm 2 mps 747 mmHg 52%
    10:00 +17°C° 0 mm 2 mps 747 mmHg 44%
    11:00 +18°C° 0 mm 2 mps 747 mmHg 40%
    12:00 +19°C° 0 mm 2 mps 746 mmHg 36%
    13:00 +20°C° 0 mm 3 mps 745 mmHg 32%
    14:00 +20°C° 0 mm 3 mps 745 mmHg 32%
    15:00 +20°C° 0 mm 3 mps 744 mmHg 32%
    16:00 +20°C° 0 mm 3 mps 743 mmHg 32%
    17:00 +18°C° 0 mm 3 mps 743 mmHg 35%
    18:00 +16°C° 0 mm 3 mps 742 mmHg 39%
    19:00 +14°C° 0 mm 3 mps 742 mmHg 43%
    20:00 +14°C° 0 mm 3 mps 741 mmHg 43%
    21:00 +13°C° 0 mm 3 mps 741 mmHg 43%
    22:00 +13°C° 0 mm 4 mps 740 mmHg 42%
    23:00 +13°C° 0.1 mm 4 mps 739 mmHg 43%
    Show more